TimeCST,TemperatureF,Dew PointF,Humidity,Sea Level PressureIn,VisibilityMPH,Wind Direction,Wind SpeedMPH,Gust SpeedMPH,PrecipitationIn,Events,Conditions,WindDirDegrees,DateUTC
12:53 AM,42.1,32.0,67,30.03,10.0,Calm,Calm,-,N/A,,Clear,0,2011-11-29 06:53:00
1:53 AM,42.1,32.0,67,30.02,10.0,Calm,Calm,-,N/A,,Clear,0,2011-11-29 07:53:00
2:53 AM,41.0,32.0,70,30.03,10.0,NW,4.6,-,N/A,,Clear,310,2011-11-29 08:53:00
3:53 AM,39.9,32.0,73,30.02,10.0,WNW,3.5,-,N/A,,Clear,300,2011-11-29 09:53:00
4:53 AM,39.0,32.0,76,30.04,10.0,WNW,6.9,-,N/A,,Clear,290,2011-11-29 10:53:00
5:53 AM,42.1,32.0,67,30.06,10.0,Calm,Calm,-,N/A,,Clear,0,2011-11-29 11:53:00
6:53 AM,42.1,30.9,65,30.09,10.0,Calm,Calm,-,N/A,,Clear,0,2011-11-29 12:53:00
7:53 AM,46.9,28.0,48,30.13,10.0,NNE,5.8,-,N/A,,Clear,20,2011-11-29 13:53:00
8:53 AM,52.0,28.0,40,30.16,10.0,NNE,9.2,-,N/A,,Clear,20,2011-11-29 14:53:00
9:53 AM,57.0,28.0,33,30.18,10.0,NE,12.7,-,N/A,,Partly Cloudy,40,2011-11-29 15:53:00
10:53 AM,62.1,25.0,24,30.19,10.0,NNE,12.7,-,N/A,,Partly Cloudy,30,2011-11-29 16:53:00
11:53 AM,64.9,28.0,25,30.17,10.0,NE,12.7,-,N/A,,Partly Cloudy,40,2011-11-29 17:53:00
12:53 PM,68.0,26.6,21,30.18,10.0,NNE,11.5,-,N/A,,Partly Cloudy,20,2011-11-29 18:53:00
1:53 PM,70.0,28.0,21,30.13,10.0,North,9.2,-,N/A,,Partly Cloudy,10,2011-11-29 19:53:00
2:53 PM,70.0,28.0,21,30.13,10.0,NNE,10.4,-,N/A,,Partly Cloudy,30,2011-11-29 20:53:00
3:53 PM,68.0,28.9,23,30.13,10.0,NNE,12.7,-,N/A,,Partly Cloudy,30,2011-11-29 21:53:00
4:53 PM,66.0,30.9,27,30.14,10.0,NNE,8.1,-,N/A,,Partly Cloudy,20,2011-11-29 22:53:00
5:53 PM,62.1,30.9,31,30.15,10.0,NE,4.6,-,N/A,,Partly Cloudy,50,2011-11-29 23:53:00
6:53 PM,57.9,32.0,37,30.18,10.0,NNE,5.8,-,N/A,,Partly Cloudy,30,2011-11-30 00:53:00
7:53 PM,53.1,34.0,48,30.20,10.0,NNW,3.5,-,N/A,,Partly Cloudy,340,2011-11-30 01:53:00
8:53 PM,50.0,36.0,59,30.21,10.0,NW,3.5,-,N/A,,Scattered Clouds,310,2011-11-30 02:53:00
9:53 PM,48.0,35.1,61,30.22,10.0,NW,5.8,-,N/A,,Mostly Cloudy,310,2011-11-30 03:53:00
10:53 PM,46.0,35.1,66,30.23,10.0,NW,6.9,-,N/A,,Mostly Cloudy,320,2011-11-30 04:53:00
11:53 PM,46.9,33.1,59,30.22,10.0,NNW,5.8,-,N/A,,Scattered Clouds,330,2011-11-30 05:53:00